Location: Apollinopolis Magna
(24.9792°N, 32.8772°E)
Time: 03:42:53
(UTC+00:00)

Cosmos 1666 - Pass Details

Date: 02 March 2021
Orbit: 497 x 518 km, 82.5° (Epoch: 12 April)

Event Time Altitude Azimuth Distance (km) Brightness Sun altitude
Rises 17:05:15 0° 178° (S) 2,570 6.2 -17.6°
Reaches altitude 10° 17:07:22 10° 175° (S) 1,689 5.2 -18.0°
Maximum altitude 17:11:01 64° 94° (E) 553 2.5 -18.9°
Drops below altitude 10° 17:14:42 10° 13° (NNE) 1,697 5.2 -19.7°
Sets 17:16:49 0° 10° (N) 2,584 6.2 -20.2°
